| time (UTC) | temp F | wind direction | speed knots | gust knots | rain 1hr in | rain 24hr in | rain mn in | humidity % | barometer mb |
| 20260906231534 | 64 | 180 | 5.2 | 10.4 | 0.00 | 0.04 | 0.02 | 75 | 1016.3 |
| 20260906230034 | 64 | 180 | 5.2 | 7.8 | 0.00 | 0.04 | 0.02 | 74 | 1016.5 |
| 20260906224536 | 63 | 180 | 4.3 | 8.7 | 0.00 | 0.04 | 0.02 | 76 | 1016.7 |
| 20260906223042 | 63 | 180 | 4.3 | 8.7 | 0.00 | 0.04 | 0.02 | 78 | 1016.7 |
| 20260906221534 | 63 | 180 | 4.3 | 8.7 | 0.01 | 0.04 | 0.02 | 76 | 1016.9 |
| 20260906220037 | 63 | 180 | 1.7 | 5.2 | 0.01 | 0.04 | 0.02 | 76 | 1017.0 |
| 20260906214539 | 63 | 0 | 0.0 | 6.1 | 0.01 | 0.04 | 0.02 | 76 | 1016.9 |
| 20260906213034 | 63 | 180 | 1.7 | 3.5 | 0.01 | 0.04 | 0.02 | 76 | 1016.9 |
| 20260906211542 | 62 | 0 | 0.0 | 1.7 | 0.00 | 0.03 | 0.01 | 76 | 1017.0 |
| 20260906210038 | 62 | 0 | 0.0 | 2.6 | 0.00 | 0.03 | 0.01 | 76 | 1017.1 |
| 20260906204539 | 62 | 0 | 0.0 | 3.5 | 0.00 | 0.03 | 0.01 | 77 | 1017.0 |
| 20260906203036 | 61 | 0 | 0.0 | 2.6 | 0.00 | 0.03 | 0.01 | 79 | 1017.2 |
| 20260906201535 | 61 | 0 | 0.0 | 2.6 | 0.00 | 0.03 | 0.01 | 80 | 1017.2 |
| 20260906200043 | 60 | 180 | 0.0 | 1.7 | 0.00 | 0.03 | 0.01 | 81 | 1017.4 |
| 20260906194536 | 60 | 180 | 0.0 | 2.6 | 0.00 | 0.03 | 0.01 | 82 | 1017.5 |
| 20260906193058 | 59 | 0 | 0.9 | 2.6 | 0.00 | 0.03 | 0.01 | 83 | 1017.8 |
| 20260906191539 | 59 | 180 | 1.7 | 5.2 | 0.00 | 0.03 | 0.01 | 84 | 1017.9 |
| 20260906190036 | 60 | 180 | 1.7 | 8.7 | 0.00 | 0.03 | 0.01 | 84 | 1018.0 |
| 20260906184543 | 61 | 180 | 1.7 | 8.7 | 0.00 | 0.04 | 0.01 | 83 | 1018.0 |
| 20260906183038 | 61 | 180 | 3.5 | 8.7 | 0.00 | 0.04 | 0.01 | 85 | 1017.9 |
| 20260906181557 | 59 | 180 | 2.6 | 7.0 | 0.00 | 0.04 | 0.01 | 88 | 1018.0 |
| 20260906180037 | 58 | 180 | 4.3 | 8.7 | 0.00 | 0.04 | 0.01 | 88 | 1018.1 |
| 20260906174541 | 58 | 180 | 5.2 | 9.6 | 0.00 | 0.04 | 0.01 | 87 | 1018.6 |
| 20260906173034 | 57 | 180 | 7.8 | 12.2 | 0.00 | 0.04 | 0.01 | 88 | 1018.5 |
| 20260906171535 | 56 | 180 | 7.8 | 10.4 | 0.00 | 0.04 | 0.01 | 88 | 1018.5 |
| 20260906170036 | 55 | 180 | 6.1 | 10.4 | 0.00 | 0.04 | 0.01 | 89 | 1018.8 |
| 20260906164540 | 55 | 180 | 3.5 | 7.8 | 0.00 | 0.04 | 0.01 | 90 | 1019.3 |
| 20260906163036 | 54 | 180 | 3.5 | 7.0 | 0.00 | 0.04 | 0.01 | 90 | 1019.7 |
| 20260906161536 | 54 | 180 | 2.6 | 7.0 | 0.00 | 0.04 | 0.01 | 91 | 1019.8 |
| 20260906160033 | 54 | 0 | 1.7 | 6.1 | 0.00 | 0.04 | 0.01 | 91 | 1019.9 |
| 20260906154541 | 54 | 180 | 2.6 | 7.0 | 0.00 | 0.04 | 0.01 | 92 | 1019.9 |
| 20260906153035 | 54 | 180 | 3.5 | 7.0 | 0.00 | 0.04 | 0.01 | 91 | 1020.0 |
| 20260906151534 | 54 | 180 | 4.3 | 8.7 | 0.00 | 0.04 | 0.01 | 91 | 1020.3 |
| 20260906150035 | 54 | 180 | 5.2 | 9.6 | 0.01 | 0.04 | 0.01 | 91 | 1020.5 |
| 20260906144547 | 54 | 180 | 3.5 | 12.2 | 0.01 | 0.04 | 0.01 | 90 | 1020.6 |
| 20260906143034 | 54 | 180 | 5.2 | 13.9 | 0.01 | 0.04 | 0.01 | 91 | 1020.5 |
| 20260906141536 | 55 | 180 | 9.6 | 13.0 | 0.01 | 0.04 | 0.01 | 91 | 1020.8 |
| 20260906140036 | 55 | 180 | 2.6 | 4.3 | 0.00 | 0.03 | 0.00 | 91 | 1020.2 |
| 20260906134535 | 55 | 180 | 2.6 | 4.3 | 0.00 | 0.08 | 0.00 | 90 | 1019.9 |
| 20260906133036 | 56 | 180 | 3.5 | 5.2 | 0.00 | 0.08 | 0.00 | 88 | 1020.1 |
| 20260906131538 | 56 | 310 | 1.7 | 7.0 | 0.00 | 0.08 | 0.00 | 86 | 1019.9 |
| 20260906130033 | 57 | 310 | 2.6 | 4.3 | 0.00 | 0.08 | 0.00 | 86 | 1020.0 |
| 20260906124539 | 57 | 310 | 0.9 | 7.8 | 0.00 | 0.09 | 0.00 | 87 | 1020.0 |
| 20260906123039 | 57 | 180 | 3.5 | 5.2 | 0.00 | 0.09 | 0.00 | 87 | 1020.0 |
| 20260906121536 | 57 | 180 | 0.9 | 3.5 | 0.00 | 0.09 | 0.00 | 87 | 1020.0 |
| 20260906120042 | 57 | 180 | 2.6 | 4.3 | 0.00 | 0.09 | 0.00 | 87 | 1019.6 |
| 20260906114546 | 57 | 180 | 0.9 | 6.1 | 0.00 | 0.09 | 0.00 | 86 | 1019.5 |
| 20260906113035 | 57 | 180 | 0.9 | 7.8 | 0.00 | 0.09 | 0.00 | 86 | 1019.6 |
| 20260906111540 | 57 | 180 | 4.3 | 10.4 | 0.00 | 0.09 | 0.00 | 85 | 1019.8 |
| 20260906110033 | 57 | 180 | 6.1 | 9.6 | 0.00 | 0.09 | 0.00 | 86 | 1019.7 |
| 20260906104546 | 57 | 180 | 3.5 | 7.0 | 0.00 | 0.09 | 0.00 | 87 | 1020.0 |
| 20260906103037 | 57 | 180 | 1.7 | 7.0 | 0.00 | 0.09 | 0.00 | 87 | 1020.2 |
| 20260906101535 | 57 | 180 | 2.6 | 7.0 | 0.00 | 0.09 | 0.00 | 87 | 1020.1 |
| 20260906100035 | 57 | 180 | 4.3 | 8.7 | 0.00 | 0.09 | 0.00 | 88 | 1020.1 |
| 20260906094555 | 57 | 180 | 2.6 | 7.0 | 0.00 | 0.09 | 0.00 | 89 | 1020.1 |
| 20260906093048 | 56 | 180 | 3.5 | 7.0 | 0.00 | 0.09 | 0.00 | 88 | 1020.2 |
| 20260906091535 | 56 | 180 | 2.6 | 7.8 | 0.00 | 0.09 | 0.00 | 88 | 1020.0 |
| 20260906090035 | 56 | 180 | 5.2 | 8.7 | 0.00 | 0.09 | 0.00 | 87 | 1020.0 |
| 20260906084534 | 56 | 4 | 4.3 | 9.6 | 0.00 | 0.09 | 0.00 | 87 | 1020.2 |
| 20260906083045 | 56 | 180 | 5.2 | 11.3 | 0.00 | 0.09 | 0.00 | 87 | 1020.4 |
| 20260906081538 | 56 | 180 | 7.0 | 10.4 | 0.00 | 0.09 | 0.00 | 88 | 1020.7 |
| 20260906080040 | 56 | 180 | 5.2 | 11.3 | 0.00 | 0.09 | 0.00 | 88 | 1021.0 |
| 20260906074535 | 56 | 180 | 7.8 | 10.4 | 0.00 | 0.09 | 0.00 | 87 | 1021.1 |
| 20260906073034 | 57 | 180 | 3.5 | 7.8 | 0.00 | 0.09 | 0.00 | 85 | 1021.4 |
| 20260906071537 | 57 | 180 | 2.6 | 5.2 | 0.00 | 0.09 | 0.00 | 84 | 1021.6 |
| 20260906070034 | 57 | 180 | 3.5 | 7.8 | 0.00 | 0.09 | 0.00 | 84 | 1021.5 |
| 20260906064534 | 57 | 180 | 4.3 | 8.7 | 0.00 | 0.09 | 0.00 | 84 | 1021.4 |
| 20260906063036 | 57 | 180 | 0.9 | 4.3 | 0.00 | 0.09 | 0.00 | 83 | 1021.5 |
| 20260906061538 | 57 | 180 | 3.5 | 7.8 | 0.00 | 0.09 | 0.00 | 85 | 1021.7 |
| 20260906060032 | 56 | 180 | 5.2 | 9.6 | 0.00 | 0.09 | 0.00 | 86 | 1021.9 |
| 20260906054539 | 56 | 180 | 5.2 | 8.7 | 0.00 | 0.09 | 0.09 | 87 | 1021.8 |
| 20260906053036 | 56 | 180 | 4.3 | 7.8 | 0.00 | 0.09 | 0.09 | 86 | 1021.8 |
| 20260906051548 | 56 | 180 | 3.5 | 8.7 | 0.00 | 0.09 | 0.09 | 86 | 1021.9 |
| 20260906050036 | 57 | 180 | 3.5 | 9.6 | 0.01 | 0.09 | 0.09 | 85 | 1021.1 |
| 20260906044535 | 57 | 180 | 4.3 | 8.7 | 0.01 | 0.09 | 0.09 | 84 | 1021.1 |
| 20260906043033 | 58 | 180 | 7.0 | 11.3 | 0.01 | 0.09 | 0.09 | 83 | 1021.0 |
| 20260906041537 | 58 | 180 | 1.7 | 9.6 | 0.01 | 0.09 | 0.09 | 84 | 1021.1 |
| 20260906040035 | 57 | 0 | 0.0 | 2.6 | 0.00 | 0.08 | 0.08 | 83 | 1020.5 |
| 20260906034535 | 57 | 180 | 0.0 | 4.3 | 0.00 | 0.08 | 0.08 | 82 | 1020.0 |
| 20260906033045 | 58 | 0 | 0.0 | 3.5 | 0.01 | 0.08 | 0.08 | 80 | 1020.2 |
| 20260906031539 | 58 | 180 | 3.5 | 7.8 | 0.01 | 0.08 | 0.08 | 79 | 1020.2 |
| 20260906030035 | 60 | 180 | 4.3 | 13.0 | 0.01 | 0.08 | 0.08 | 76 | 1020.1 |
| 20260906024547 | 63 | 180 | 10.4 | 20.0 | 0.01 | 0.08 | 0.08 | 68 | 1019.4 |
| 20260906023035 | 61 | 180 | 4.3 | 8.7 | 0.00 | 0.07 | 0.07 | 69 | 1020.4 |
| 20260906021534 | 61 | 180 | 1.7 | 5.2 | 0.00 | 0.07 | 0.07 | 67 | 1018.2 |
| 20260906020034 | 62 | 180 | 2.6 | 7.0 | 0.00 | 0.07 | 0.07 | 64 | 1018.6 |
| 20260906014549 | 63 | 180 | 5.2 | 11.3 | 0.00 | 0.07 | 0.07 | 62 | 1018.6 |
| 20260906013044 | 65 | 180 | 7.8 | 13.0 | 0.00 | 0.07 | 0.07 | 59 | 1018.4 |
| 20260906011534 | 66 | 180 | 6.1 | 13.0 | 0.00 | 0.07 | 0.07 | 57 | 1018.5 |
| 20260906010036 | 67 | 180 | 8.7 | 15.6 | 0.00 | 0.07 | 0.07 | 53 | 1018.5 |
| 20260906004534 | 69 | 180 | 9.6 | 14.8 | 0.00 | 0.07 | 0.07 | 50 | 1018.6 |
| 20260906003034 | 70 | 180 | 9.6 | 15.6 | 0.00 | 0.07 | 0.07 | 48 | 1018.7 |
| 20260906001534 | 72 | 180 | 10.4 | 14.8 | 0.00 | 0.07 | 0.07 | 44 | 1018.6 |
| 20260906000039 | 73 | 180 | 8.7 | 13.9 | 0.00 | 0.07 | 0.07 | 40 | 1018.6 |
| 20260905234538 | 73 | 180 | 8.7 | 13.9 | 0.00 | 0.07 | 0.07 | 41 | 1018.6 |
| 20260905233035 | 72 | 180 | 7.8 | 11.3 | 0.00 | 0.07 | 0.07 | 42 | 1018.7 |